| time (UTC) | temp C | wind direction | speed KPH | gust KPH | rain 1hr cm | rain 24hr cm | rain mn cm | humidity % | barometer mb |
| 20260507002305 | 3 | 270 | 11.3 | 16.1 | 0.00 | 0.69 | 0.20 | 84 | 1013.9 |
| 20260507001258 | 3 | 225 | 12.9 | 17.7 | 0.00 | 0.69 | 0.20 | 84 | 1014.0 |
| 20260507000255 | 3 | 135 | 4.8 | 6.4 | 0.03 | 0.69 | 0.20 | 84 | 1013.6 |
| 20260506235246 | 3 | 180 | 11.3 | 12.9 | 0.05 | 0.69 | 0.20 | 84 | 1013.7 |
| 20260506234244 | 3 | 270 | 9.7 | 17.7 | 0.13 | 0.69 | 0.20 | 83 | 1013.7 |
| 20260506233240 | 3 | 270 | 9.7 | 14.5 | 0.15 | 0.69 | 0.20 | 83 | 1013.5 |
| 20260506232235 | 3 | 180 | 4.8 | 6.4 | 0.18 | 0.69 | 0.20 | 83 | 1013.2 |
| 20260506231232 | 3 | 180 | 3.2 | 6.4 | 0.20 | 0.69 | 0.20 | 82 | 1013.4 |
| 20260506230228 | 3 | 135 | 1.6 | 3.2 | 0.18 | 0.66 | 0.18 | 82 | 1013.4 |
| 20260506225218 | 3 | 135 | 6.4 | 8.0 | 0.15 | 0.64 | 0.15 | 82 | 1013.4 |
| 20260506224219 | 3 | 225 | 9.7 | 12.9 | 0.13 | 0.56 | 0.10 | 81 | 1013.7 |
| 20260506223211 | 3 | 180 | 17.7 | 17.7 | 0.18 | 0.53 | 0.05 | 81 | 1013.7 |
| 20260506222211 | 3 | 180 | 6.4 | 9.7 | 0.15 | 0.51 | 0.03 | 80 | 1013.4 |
| 20260506221209 | 3 | 225 | 8.0 | 12.9 | 0.13 | 0.48 | 0.00 | 79 | 1013.6 |
| 20260506220226 | 3 | 90 | 3.2 | 6.4 | 0.13 | 0.48 | 0.00 | 77 | 1013.5 |
| 20260506215201 | 4 | 135 | 6.4 | 6.4 | 0.13 | 0.48 | 0.48 | 75 | 1013.4 |
| 20260506214151 | 4 | 45 | 6.4 | 8.0 | 0.10 | 0.46 | 0.46 | 73 | 1013.6 |
| 20260506213213 | 5 | 270 | 22.5 | 30.6 | 0.00 | 0.36 | 0.36 | 72 | 1013.3 |
| 20260506212144 | 5 | 270 | 9.7 | 12.9 | 0.00 | 0.36 | 0.36 | 72 | 1013.0 |
| 20260506211144 | 5 | 315 | 6.4 | 9.7 | 0.00 | 0.36 | 0.36 | 72 | 1013.0 |
| 20260506210140 | 5 | 135 | 9.7 | 12.9 | 0.00 | 0.36 | 0.36 | 72 | 1012.9 |
| 20260506205131 | 5 | 180 | 6.4 | 8.0 | 0.00 | 0.36 | 0.36 | 72 | 1012.8 |
| 20260506204127 | 5 | 180 | 4.8 | 6.4 | 0.00 | 0.36 | 0.36 | 72 | 1012.8 |
| 20260506203124 | 5 | 225 | 8.0 | 11.3 | 0.00 | 0.36 | 0.36 | 71 | 1012.9 |
| 20260506202119 | 6 | 248 | 9.7 | 14.5 | 0.00 | 0.36 | 0.36 | 71 | 1013.0 |
| 20260506201114 | 6 | 225 | 9.7 | 12.9 | 0.00 | 0.36 | 0.36 | 71 | 1012.7 |
| 20260506200109 | 5 | 135 | 9.7 | 14.5 | 0.00 | 0.36 | 0.36 | 71 | 1012.8 |
| 20260506195106 | 5 | 90 | 6.4 | 8.0 | 0.00 | 0.36 | 0.36 | 70 | 1012.8 |
| 20260506194104 | 5 | 45 | 6.4 | 6.4 | 0.00 | 0.36 | 0.36 | 70 | 1012.9 |
| 20260506193101 | 6 | 315 | 6.4 | 9.7 | 0.00 | 0.36 | 0.36 | 70 | 1012.9 |
| 20260506192053 | 6 | 180 | 9.7 | 12.9 | 0.00 | 0.36 | 0.36 | 68 | 1012.8 |
| 20260506191111 | 6 | 225 | 9.7 | 14.5 | 0.00 | 0.36 | 0.36 | 67 | 1012.8 |
| 20260506190047 | 6 | 225 | 12.9 | 16.1 | 0.00 | 0.36 | 0.36 | 66 | 1012.6 |
| 20260506185042 | 6 | 270 | 12.9 | 17.7 | 0.00 | 0.36 | 0.36 | 67 | 1012.6 |
| 20260506184040 | 7 | 270 | 6.4 | 11.3 | 0.00 | 0.36 | 0.36 | 67 | 1012.6 |
| 20260506183033 | 7 | 270 | 11.3 | 14.5 | 0.00 | 0.36 | 0.36 | 65 | 1012.4 |
| 20260506182028 | 7 | 225 | 9.7 | 12.9 | 0.00 | 0.36 | 0.36 | 64 | 1012.4 |
| 20260506181024 | 7 | 270 | 6.4 | 8.0 | 0.00 | 0.36 | 0.36 | 62 | 1012.4 |
| 20260506180022 | 7 | 315 | 11.3 | 14.5 | 0.00 | 0.36 | 0.36 | 54 | 1012.4 |
| 20260506175012 | 7 | 225 | 12.9 | 16.1 | 0.00 | 0.36 | 0.36 | 53 | 1012.4 |
| 20260506174052 | 8 | 225 | 9.7 | 14.5 | 0.00 | 0.36 | 0.36 | 52 | 1012.3 |
| 20260506173010 | 9 | 270 | 9.7 | 12.9 | 0.00 | 0.36 | 0.36 | 54 | 1012.2 |
| 20260506172007 | 8 | 180 | 9.7 | 12.9 | 0.00 | 0.36 | 0.36 | 53 | 1012.3 |
| 20260506171023 | 8 | 248 | 16.1 | 19.3 | 0.00 | 0.36 | 0.36 | 54 | 1012.2 |
| 20260506165953 | 8 | 225 | 12.9 | 16.1 | 0.00 | 0.36 | 0.36 | 54 | 1012.2 |
| 20260506164954 | 8 | 248 | 9.7 | 12.9 | 0.00 | 0.36 | 0.36 | 53 | 1012.3 |
| 20260506163949 | 8 | 225 | 11.3 | 12.9 | 0.00 | 0.36 | 0.36 | 53 | 1012.2 |
| 20260506162945 | 8 | 270 | 12.9 | 19.3 | 0.00 | 0.36 | 0.36 | 51 | 1012.2 |
| 20260506161938 | 8 | 225 | 8.0 | 12.9 | 0.00 | 0.36 | 0.36 | 51 | 1012.1 |
| 20260506160935 | 9 | 248 | 12.9 | 14.5 | 0.00 | 0.36 | 0.36 | 50 | 1012.3 |
| 20260506155950 | 10 | 0 | 12.9 | 17.7 | 0.00 | 0.36 | 0.36 | 49 | 1012.3 |
| 20260506154926 | 11 | 270 | 17.7 | 20.9 | 0.00 | 0.36 | 0.36 | 51 | 1012.5 |
| 20260506153920 | 10 | 225 | 12.9 | 16.1 | 0.00 | 0.36 | 0.36 | 54 | 1012.5 |
| 20260506152913 | 9 | 270 | 11.3 | 12.9 | 0.00 | 0.36 | 0.36 | 54 | 1012.6 |
| 20260506151934 | 8 | 315 | 6.4 | 9.7 | 0.00 | 0.36 | 0.36 | 54 | 1012.4 |
| 20260506150911 | 8 | 315 | 9.7 | 12.9 | 0.00 | 0.36 | 0.36 | 53 | 1012.6 |
| 20260506145908 | 8 | 248 | 12.9 | 17.7 | 0.00 | 0.36 | 0.36 | 52 | 1012.6 |
| 20260506145002 | 8 | 270 | 12.9 | 16.1 | 0.00 | 0.36 | 0.36 | 51 | 1012.4 |
| 20260506144002 | 10 | 225 | 9.7 | 12.9 | 0.00 | 0.36 | 0.36 | 52 | 1012.3 |
| 20260506142954 | 10 | 180 | 17.7 | 22.5 | 0.00 | 0.36 | 0.36 | 54 | 1012.3 |
| 20260506141949 | 9 | 270 | 24.1 | 27.4 | 0.00 | 0.36 | 0.36 | 57 | 1012.8 |
| 20260506141006 | 9 | 338 | 8.0 | 12.9 | 0.00 | 0.36 | 0.36 | 59 | 1012.7 |
| 20260506135941 | 8 | 225 | 16.1 | 17.7 | 0.00 | 0.36 | 0.36 | 58 | 1012.8 |
| 20260506134934 | 8 | 90 | 12.9 | 17.7 | 0.00 | 0.36 | 0.36 | 56 | 1012.8 |
| 20260506134004 | 8 | 270 | 12.9 | 16.1 | 0.00 | 0.36 | 0.36 | 55 | 1012.5 |
| 20260506132953 | 8 | 203 | 11.3 | 12.9 | 0.00 | 0.36 | 0.36 | 55 | 1012.7 |
| 20260506131951 | 8 | 225 | 12.9 | 17.7 | 0.00 | 0.36 | 0.36 | 58 | 1012.8 |
| 20260506130948 | 8 | 158 | 4.8 | 6.4 | 0.00 | 0.36 | 0.36 | 60 | 1012.7 |
| 20260506125942 | 8 | 180 | 6.4 | 9.7 | 0.00 | 0.36 | 0.36 | 60 | 1012.8 |
| 20260506124936 | 8 | 225 | 9.7 | 12.9 | 0.00 | 0.36 | 0.36 | 61 | 1012.6 |
| 20260506123936 | 8 | 135 | 11.3 | 12.9 | 0.00 | 0.36 | 0.36 | 61 | 1012.7 |
| 20260506122930 | 8 | 248 | 9.7 | 11.3 | 0.00 | 0.36 | 0.36 | 63 | 1012.5 |
| 20260506121923 | 8 | 248 | 11.3 | 16.1 | 0.00 | 0.36 | 0.36 | 62 | 1012.7 |
| 20260506120921 | 8 | 0 | 16.1 | 20.9 | 0.00 | 0.36 | 0.36 | 63 | 1012.7 |
| 20260506115917 | 8 | 270 | 12.9 | 17.7 | 0.00 | 0.36 | 0.36 | 63 | 1012.8 |
| 20260506114909 | 8 | 225 | 6.4 | 16.1 | 0.00 | 0.36 | 0.36 | 66 | 1012.5 |
| 20260506113911 | 8 | 225 | 9.7 | 12.9 | 0.00 | 0.36 | 0.36 | 70 | 1012.4 |
| 20260506112907 | 7 | 135 | 6.4 | 8.0 | 0.00 | 0.36 | 0.36 | 71 | 1012.8 |
| 20260506111858 | 6 | 225 | 11.3 | 12.9 | 0.00 | 0.43 | 0.36 | 71 | 1012.5 |
| 20260506110858 | 7 | 270 | 12.9 | 17.7 | 0.00 | 0.56 | 0.36 | 72 | 1012.8 |
| 20260506105914 | 6 | 248 | 9.7 | 12.9 | 0.00 | 0.69 | 0.36 | 71 | 1012.6 |
| 20260506104849 | 6 | 248 | 12.9 | 17.7 | 0.00 | 0.71 | 0.36 | 71 | 1012.8 |
| 20260506103845 | 6 | 248 | 12.9 | 16.1 | 0.00 | 0.71 | 0.36 | 71 | 1012.7 |
| 20260506102835 | 6 | 225 | 14.5 | 17.7 | 0.00 | 0.71 | 0.36 | 72 | 1012.4 |
| 20260506101853 | 7 | 90 | 8.0 | 12.9 | 0.00 | 0.76 | 0.36 | 76 | 1012.4 |
| 20260506100831 | 7 | 225 | 12.9 | 16.1 | 0.00 | 0.76 | 0.36 | 80 | 1012.3 |
| 20260506095824 | 6 | 180 | 12.9 | 16.1 | 0.00 | 0.76 | 0.36 | 81 | 1012.5 |
| 20260506094819 | 6 | 315 | 12.9 | 19.3 | 0.00 | 0.76 | 0.36 | 83 | 1012.6 |
| 20260506093816 | 6 | 248 | 19.3 | 25.7 | 0.00 | 0.76 | 0.36 | 84 | 1012.4 |
| 20260506092814 | 5 | 270 | 12.9 | 17.7 | 0.00 | 0.76 | 0.36 | 83 | 1012.4 |
| 20260506091811 | 5 | 180 | 12.9 | 16.1 | 0.00 | 0.76 | 0.36 | 83 | 1012.5 |
| 20260506090806 | 5 | 225 | 11.3 | 16.1 | 0.05 | 0.76 | 0.36 | 83 | 1012.6 |
| 20260506085804 | 5 | 180 | 9.7 | 14.5 | 0.10 | 0.76 | 0.36 | 84 | 1012.5 |
| 20260506084757 | 5 | 270 | 11.3 | 17.7 | 0.13 | 0.79 | 0.36 | 85 | 1012.5 |
| 20260506083753 | 5 | 270 | 11.3 | 12.9 | 0.13 | 0.79 | 0.36 | 84 | 1012.7 |
| 20260506082750 | 4 | 0 | 8.0 | 11.3 | 0.13 | 0.79 | 0.36 | 83 | 1012.6 |
| 20260506081743 | 3 | 90 | 6.4 | 9.7 | 0.13 | 0.79 | 0.36 | 82 | 1012.6 |
| 20260506080739 | 3 | 0 | 1.6 | 3.2 | 0.05 | 0.71 | 0.30 | 81 | 1012.6 |
| 20260506072718 | 5 | 0 | 11.3 | 17.7 | 0.00 | 0.71 | 0.23 | 75 | 1012.2 |
| 20260506071733 | 5 | 270 | 12.9 | 24.1 | 0.00 | 0.71 | 0.23 | 78 | 1012.1 |
| 20260506070710 | 5 | 203 | 11.3 | 19.3 | 0.00 | 0.71 | 0.23 | 79 | 1011.8 |
| 20260506061656 | 5 | 135 | 8.0 | 11.3 | 0.03 | 0.84 | 0.23 | 85 | 1011.7 |
| 20260506060709 | 5 | 225 | 16.1 | 22.5 | 0.03 | 0.84 | 0.23 | 87 | 1011.8 |
| 20260506050622 | 3 | 180 | 9.7 | 12.9 | 0.00 | 0.81 | 0.20 | 88 | 1011.5 |
| 20260506044634 | 3 | 315 | 6.4 | 9.7 | 0.03 | 0.81 | 0.20 | 87 | 1011.7 |
| 20260506043610 | 3 | 180 | 9.7 | 14.5 | 0.03 | 0.81 | 0.20 | 87 | 1012.0 |
| 20260506042609 | 3 | 180 | 8.0 | 9.7 | 0.03 | 0.81 | 0.20 | 87 | 1011.7 |
| 20260506041604 | 3 | 203 | 6.4 | 9.7 | 0.05 | 0.81 | 0.20 | 87 | 1011.9 |
| 20260506040559 | 3 | 180 | 6.4 | 11.3 | 0.05 | 0.81 | 0.20 | 86 | 1011.6 |
| 20260506035556 | 2 | 293 | 9.7 | 12.9 | 0.10 | 0.81 | 0.20 | 86 | 1011.9 |
| 20260506034552 | 2 | 180 | 12.9 | 12.9 | 0.05 | 0.79 | 0.18 | 86 | 1011.8 |
| 20260506033545 | 2 | 270 | 3.2 | 4.8 | 0.10 | 0.79 | 0.18 | 86 | 1011.8 |
| 20260506032541 | 2 | 135 | 4.8 | 6.4 | 0.10 | 0.79 | 0.18 | 85 | 1012.0 |
| 20260506031536 | 2 | 135 | 3.2 | 4.8 | 0.05 | 0.76 | 0.15 | 85 | 1011.7 |
| 20260506030533 | 2 | 225 | 3.2 | 3.2 | 0.05 | 0.76 | 0.15 | 85 | 1011.7 |
| 20260506025547 | 2 | 180 | 9.7 | 11.3 | 0.03 | 0.71 | 0.13 | 85 | 1011.8 |
| 20260506024524 | 2 | 0 | 9.7 | 14.5 | 0.05 | 0.71 | 0.13 | 86 | 1011.8 |
| 20260506023540 | 3 | 225 | 6.4 | 9.7 | 0.03 | 0.69 | 0.10 | 86 | 1011.8 |
| 20260506022516 | 3 | 270 | 6.4 | 8.0 | 0.05 | 0.69 | 0.10 | 85 | 1011.7 |
| 20260506021511 | 3 | 270 | 6.4 | 8.0 | 0.05 | 0.69 | 0.10 | 85 | 1011.6 |
| 20260506020530 | 3 | 248 | 9.7 | 11.3 | 0.05 | 0.69 | 0.10 | 85 | 1011.6 |
| 20260506015506 | 3 | 270 | 6.4 | 8.0 | 0.05 | 0.69 | 0.10 | 85 | 1011.7 |
| 20260506014502 | 3 | 225 | 12.9 | 17.7 | 0.03 | 0.66 | 0.05 | 84 | 1012.1 |
| 20260506013455 | 2 | 180 | 12.9 | 17.7 | 0.05 | 0.66 | 0.05 | 84 | 1011.8 |
| 20260506012451 | 2 | 225 | 11.3 | 14.5 | 0.03 | 0.64 | 0.03 | 83 | 1011.6 |
| 20260506011448 | 2 | 270 | 8.0 | 12.9 | 0.03 | 0.64 | 0.03 | 83 | 1011.7 |
| 20260506010444 | 2 | 270 | 6.4 | 12.9 | 0.03 | 0.64 | 0.03 | 83 | 1011.8 |
| 20260506005434 | 2 | 135 | 12.9 | 19.3 | 0.03 | 0.64 | 0.03 | 82 | 1011.6 |
| 20260506004453 | 3 | 135 | 6.4 | 11.3 | 0.03 | 0.64 | 0.03 | 82 | 1012.0 |
| 20260506003428 | 2 | 270 | 3.2 | 3.2 | 0.00 | 0.61 | 0.00 | 81 | 1011.3 |